N1VL Weather Reports


Display with metric or nautical units.
time (UTC)temp
F
wind
direction
speed
MPH
gust
MPH
rain 1hr
in
rain 24hr
in
rain mn
in
humidity
%
barometer
mb
20260831193624 82 95 7.0 13.0 0.00 0.01 0.00 42 1019.1
20260831192724 82 95 7.0 13.0 0.00 0.01 0.00 43 1019.3
20260831191803 81 90 7.0 10.0 0.00 0.01 0.00 44 1019.5
20260831190903 80 92 5.0 11.0 0.00 0.01 0.00 44 1019.5
20260831190003 79 84 5.0 9.0 0.00 0.01 0.00 47 1019.7
20260831185403 78 105 4.0 8.0 0.00 0.01 0.00 46 1019.8
20260831184524 78 87 5.0 9.0 0.00 0.01 0.00 46 1019.9
20260831183603 76 86 5.0 8.0 0.00 0.56 0.00 48 1020.1
20260831182703 76 98 4.0 8.0 0.00 1.20 0.00 47 1020.2
20260831181803 76 119 4.0 9.0 0.00 1.20 0.00 47 1020.5
20260831180903 75 112 6.0 8.0 0.00 1.20 0.00 47 1020.5
20260831180003 76 118 6.0 9.0 0.00 1.20 0.00 46 1020.6
20260831175403 76 102 4.0 9.0 0.00 1.20 0.00 46 1020.7
20260831174523 75 68 6.0 11.0 0.00 1.20 0.00 47 1020.7
20260831173602 74 77 5.0 8.0 0.00 1.20 0.00 47 1020.9
20260831172702 74 72 4.0 8.0 0.00 1.21 0.00 47 1020.9
20260831171802 73 99 4.0 10.0 0.00 1.39 0.00 47 1021.0
20260831170902 73 108 6.0 11.0 0.00 1.39 0.00 47 1021.1
20260831170002 72 95 5.0 11.0 0.00 1.39 0.00 46 1021.1
20260831165402 72 89 5.0 11.0 0.00 1.39 0.00 47 1021.0
20260831164502 71 97 6.0 11.0 0.00 1.39 0.00 47 1021.1
20260831163623 71 91 7.0 12.0 0.00 1.39 0.00 47 1021.0
20260831162723 71 90 5.0 11.0 0.00 1.39 0.00 47 1020.9
20260831161802 71 93 4.0 9.0 0.00 1.39 0.00 47 1020.7
20260831160902 72 103 5.0 9.0 0.00 1.39 0.00 46 1020.7
20260831160002 72 87 3.0 8.0 0.00 1.39 0.00 45 1020.5
20260831155402 71 91 3.0 8.0 0.00 1.39 0.00 44 1020.5
20260831154502 70 111 4.0 7.0 0.00 1.39 0.00 42 1020.4
20260831153602 70 111 3.0 7.0 0.00 1.39 0.00 39 1020.4
20260831152702 69 120 3.0 6.0 0.00 1.39 0.00 37 1020.5
20260831151802 69 133 3.0 7.0 0.00 1.39 0.00 35 1020.5
20260831150902 68 136 3.0 6.0 0.00 1.39 0.00 34 1020.6
20260831150002 67 123 3.0 5.0 0.00 1.57 0.00 34 1020.7
20260831145423 67 98 3.0 5.0 0.00 1.78 0.00 33 1020.8
20260831144502 66 68 2.0 4.0 0.00 1.80 0.00 31 1020.8
20260831143602 65 44 1.0 6.0 0.00 1.82 0.00 28 1020.8
20260831142723 64 66 4.0 6.0 0.00 1.82 0.00 26 1020.9
20260831141823 62 86 3.0 5.0 0.00 1.82 0.00 24 1020.9
20260831140902 61 86 3.0 5.0 0.00 1.82 0.00 24 1020.9
20260831140002 60 86 2.0 4.0 0.00 1.82 0.00 24 1020.8
20260831135402 60 86 2.0 5.0 0.00 1.82 0.00 24 1020.6
20260831134502 60 86 1.0 5.0 0.00 1.82 0.00 24 1020.6
20260831133623 59 86 2.0 4.0 0.00 1.82 0.00 24 1020.5
20260831132702 59 86 2.0 4.0 0.00 1.88 0.00 24 1020.4
20260831131802 58 86 2.0 4.0 0.00 1.88 0.00 24 1020.2
20260831130902 58 86 2.0 4.0 0.00 1.88 0.00 25 1020.2
20260831130002 58 86 1.0 4.0 0.00 1.88 0.00 25 1020.2
20260831125402 58 86 1.0 3.0 0.00 1.88 0.00 25 1020.1
20260831124502 58 86 1.0 4.0 0.00 1.88 0.00 25 1020.1
20260831123602 58 65 3.0 5.0 0.00 1.88 0.00 25 1020.1
20260831122702 58 54 2.0 5.0 0.00 1.88 0.00 25 1020.1
20260831121802 58 143 1.0 4.0 0.00 1.88 0.00 25 1020.1
20260831120902 58 144 1.0 5.0 0.00 1.88 0.00 25 1020.1
20260831120023 58 131 2.0 5.0 0.00 1.88 0.00 25 1020.2
20260831115402 58 126 2.0 4.0 0.00 1.88 0.00 25 1020.2
20260831114523 58 126 2.0 4.0 0.00 1.88 0.00 25 1020.3
20260831113602 58 126 1.0 4.0 0.00 1.88 0.00 26 1020.4
20260831112723 58 126 2.0 6.0 0.00 1.88 0.00 26 1020.4
20260831111802 58 122 4.0 6.0 0.00 1.88 0.00 26 1020.4
20260831110902 58 81 3.0 6.0 0.00 1.88 0.00 26 1020.4
20260831110023 58 68 5.0 7.0 0.00 1.88 0.00 26 1020.4
20260831105402 58 74 4.0 6.0 0.00 1.88 0.00 26 1020.3
20260831104502 59 74 3.0 5.0 0.00 1.88 0.00 26 1020.3
20260831103602 59 72 3.0 5.0 0.00 1.88 0.00 26 1020.3
20260831102702 59 72 2.0 5.0 0.00 1.88 0.00 26 1020.2
20260831101802 59 0 0.0 1.0 0.00 1.88 0.00 26 1020.1
20260831100902 59 72 0.0 2.0 0.00 1.88 0.00 27 1019.9
20260831100002 59 72 0.0 2.0 0.00 1.88 0.00 27 1019.7
20260831095402 59 72 0.0 3.0 0.00 1.88 0.00 27 1019.7
20260831094502 59 72 1.0 4.0 0.00 1.88 0.00 28 1019.7
20260831093602 59 72 1.0 5.0 0.00 1.88 0.00 28 1019.7
20260831092702 59 72 1.0 5.0 0.00 1.88 0.00 28 1019.7
20260831091802 59 72 2.0 5.0 0.00 1.88 0.00 28 1019.7
20260831090902 59 72 1.0 5.0 0.00 1.88 0.00 28 1019.6
20260831090023 59 72 3.0 5.0 0.00 1.88 0.00 28 1019.7
20260831085402 59 72 1.0 4.0 0.00 1.88 0.00 29 1019.7
20260831084502 60 72 1.0 2.0 0.00 1.89 0.00 29 1019.7
20260831083602 60 72 2.0 4.0 0.00 1.90 0.00 29 1019.7
20260831082702 60 72 1.0 4.0 0.00 1.90 0.00 29 1019.8
20260831081802 60 0 0.0 0.0 0.00 1.90 0.00 30 1019.8
20260831080902 60 0 0.0 2.0 0.00 1.90 0.00 31 1019.8
20260831080002 60 72 0.0 2.0 0.00 1.90 0.00 31 1020.0
20260831075402 61 72 1.0 4.0 0.00 1.90 0.00 31 1020.1
20260831074502 61 71 3.0 6.0 0.00 1.90 0.00 30 1020.1
20260831073602 61 66 4.0 6.0 0.00 1.90 0.00 30 1020.1
20260831072702 62 60 3.0 6.0 0.00 1.90 0.00 30 1020.2
20260831071802 62 60 2.0 4.0 0.00 1.90 0.00 30 1020.2
20260831070902 62 58 1.0 6.0 0.00 1.91 0.00 31 1020.2
20260831070002 62 57 3.0 6.0 0.00 1.91 0.00 32 1020.1
20260831065402 62 57 3.0 6.0 0.00 1.91 0.00 32 1020.1
20260831064502 62 57 1.0 4.0 0.00 1.91 0.00 32 1020.1
20260831063602 62 0 0.0 0.0 0.00 1.91 0.00 32 1020.1
20260831062702 62 0 0.0 0.0 0.00 1.91 0.00 33 1020.1
20260831061802 62 0 0.0 0.0 0.00 1.91 0.00 33 1020.0
20260831060902 62 0 0.0 0.0 0.00 1.91 0.00 33 1020.0
20260831060002 63 57 0.0 1.0 0.00 1.91 0.00 33 1020.1
20260831055402 64 57 1.0 4.0 0.00 1.91 1.91 33 1020.1
20260831054502 64 57 3.0 5.0 0.00 1.91 1.91 33 1020.1
20260831053602 64 57 3.0 5.0 0.00 1.91 1.91 33 1020.1
20260831052702 64 57 2.0 4.0 0.00 1.91 1.91 32 1020.2
20260831051803 64 57 2.0 5.0 0.00 1.91 1.91 32 1020.1
20260831050902 64 57 2.0 5.0 0.00 1.91 1.91 31 1020.2
20260831050002 64 63 3.0 5.0 0.00 1.92 1.91 31 1020.2
20260831045402 64 74 1.0 5.0 0.00 1.92 1.91 31 1020.2
20260831044502 64 87 1.0 4.0 0.00 1.94 1.91 31 1020.2
20260831043602 65 89 3.0 6.0 0.00 1.95 1.91 31 1020.0
20260831042702 65 104 4.0 6.0 0.00 1.96 1.91 31 1019.8
20260831041802 65 126 3.0 6.0 0.00 1.96 1.91 33 1019.8
20260831040902 66 139 1.0 5.0 0.00 1.96 1.91 34 1019.8
20260831040002 66 139 4.0 5.0 0.00 1.96 1.91 34 1019.6
20260831035402 66 139 4.0 5.0 0.00 1.96 1.91 34 1019.5
20260831034502 66 139 3.0 5.0 0.00 1.96 1.91 35 1019.4
20260831033602 66 133 3.0 4.0 0.00 1.97 1.91 35 1019.3
20260831032702 66 119 3.0 4.0 0.00 1.98 1.91 36 1019.4
20260831031802 67 100 2.0 5.0 0.00 1.98 1.91 36 1019.5
20260831030902 67 0 0.0 0.0 0.00 1.98 1.91 36 1019.4
20260831030002 67 0 0.0 1.0 0.00 1.98 1.91 37 1019.3
20260831025402 68 31 0.0 4.0 0.00 1.98 1.91 39 1019.2
20260831024502 68 31 0.0 6.0 0.00 1.98 1.91 40 1019.1
20260831023602 69 29 3.0 6.0 0.00 1.98 1.91 40 1019.1
20260831022723 69 60 3.0 6.0 0.00 1.98 1.91 39 1019.0
20260831021802 69 68 2.0 5.0 0.00 1.98 1.91 40 1018.9
20260831020902 70 77 3.0 5.0 0.00 1.98 1.91 41 1018.9
20260831020023 70 82 1.0 8.0 0.00 1.98 1.91 44 1018.7
20260831015402 71 75 3.0 8.0 0.00 1.98 1.91 45 1018.7
20260831014502 71 99 5.0 9.0 0.00 1.98 1.91 46 1018.6
20260831013602 72 95 6.0 12.0 0.00 1.98 1.91 46 1018.7
20260831012702 73 96 9.0 14.0 0.00 1.98 1.91 49 1018.5
20260831011823 75 96 7.0 14.0 0.00 2.04 1.91 51 1018.3
20260831010902 77 108 3.0 7.0 0.00 2.07 1.91 46 1018.5
20260831010002 77 124 4.0 8.0 0.00 2.07 1.91 46 1018.4
20260831005402 78 64 4.0 14.0 0.00 2.07 1.91 46 1018.3
20260831004502 78 317 9.0 14.0 0.00 2.07 1.91 45 1018.3
20260831003602 78 285 10.0 16.0 0.00 2.07 1.91 45 1018.3
20260831002702 79 288 9.0 15.0 0.00 2.07 1.91 45 1018.2
20260831001802 79 279 9.0 15.0 0.00 2.07 1.91 45 1018.3
20260831000902 79 292 8.0 15.0 0.00 2.07 1.91 45 1018.3
20260831000002 79 289 9.0 14.0 0.00 2.07 1.91 47 1018.1
20260830235402 78 274 10.0 15.0 0.00 2.07 1.91 46 1018.0
20260830234502 78 290 9.0 15.0 0.00 2.07 1.91 48 1018.0
20260830233602 77 302 9.0 14.0 0.00 2.07 1.91 48 1018.2
20260830232702 77 292 3.0 10.0 0.00 2.07 1.91 48 1018.3
20260830231802 76 164 3.0 7.0 0.01 2.07 1.91 47 1018.4
20260830230902 76 132 5.0 7.0 0.01 2.07 1.91 47 1018.4
20260830230002 76 184 3.0 6.0 0.01 2.07 1.91 46 1018.4
20260830225402 76 190 3.0 6.0 0.01 2.07 1.91 47 1018.5
20260830224502 76 191 3.0 7.0 0.01 2.07 1.91 48 1018.5
20260830223602 75 181 3.0 8.0 0.01 2.07 1.91 46 1018.4
20260830222702 75 159 4.0 8.0 0.01 2.07 1.91 48 1018.8
20260830221823 75 157 5.0 8.0 0.00 2.06 1.90 49 1018.7
20260830220923 76 136 2.0 5.0 0.00 2.06 1.90 50 1018.8
20260830220002 76 89 3.0 7.0 0.00 2.06 1.90 49 1018.6
20260830215402 76 94 4.0 9.0 0.00 2.06 1.90 48 1018.4
20260830214523 76 103 4.0 9.0 0.00 2.06 1.90 47 1018.5
20260830213602 77 109 6.0 13.0 0.00 2.06 1.90 46 1018.7
20260830212723 78 97 7.0 13.0 0.00 2.06 1.90 46 1018.9
20260830211802 79 92 9.0 15.0 0.00 2.06 1.90 45 1018.8
20260830210902 79 88 9.0 15.0 0.00 2.06 1.90 47 1018.9
20260830210002 80 94 8.0 15.0 0.00 2.06 1.90 47 1019.2
20260830205402 80 91 8.0 15.0 0.00 2.06 1.90 47 1019.3
20260830204502 79 86 9.0 15.0 0.00 2.06 1.90 47 1019.4
20260830203623 79 83 9.0 15.0 0.00 2.06 1.90 47 1019.4
20260830202702 78 87 8.0 14.0 0.00 2.06 1.90 47 1019.5
20260830201823 79 85 7.0 15.0 0.00 2.06 1.90 47 1019.7
20260830200923 78 95 8.0 13.0 0.00 2.06 1.90 47 1019.8
20260830200023 78 89 7.0 11.0 0.00 2.06 1.90 47 1019.7
20260830195402 78 85 8.0 13.0 0.00 2.06 1.90 46 1019.7
20260830194502 77 93 8.0 16.0 0.00 2.06 1.90 47 1019.9